Preview of NWS' New Version of Forecast
This preview is not operational and should not be used for support decisions.

Regional Weather Roundup (RWR)

Issued by National Weather Service (NWS)

                            
000
ASUS44 KJAN 171610
RWRMS 

MISSISSIPPI HOURLY WEATHER ROUNDUP
NATIONAL WEATHER SERVICE JACKSON MS
1100 AM CDT MON JUN 17 2019

NOTE: "FAIR: INDICATES FEW OR NO CLOUDS BELOW 12,000 FEET WITH NO
SIGNIFICANT WEATHER AND/OR OBSTRUCTIONS TO VISIBILITY.

MSZ001>002-007>008-010>013-018>021-025>028-034>036-171700-
NORTHWEST MISSISSIPPI
  
CITY           SKY/WX    TMP DP  RH WIND       PRES   REMARKS
BATESVILLE     FAIR      79  70  73 S6        29.97S                  
CLARKSDALE     SUNNY     84  70  61 S8        29.97S                  
CLEVELAND      PTSUNNY   79  68  70 SW7       29.98R                  
GREENWOOD      FAIR      80  71  74 S5        29.98S                  
GREENVILLE     CLOUDY    77  67  71 S7        29.97R                  
OLIVE BRANCH   PTSUNNY   81  64  57 SW12G21   29.97R                  
OXFORD         FAIR      81  68  65 SW10      30.00S                  
TUNICA           N/A     82  66  57 SW12      29.96S                  
WINONA         FAIR      81  72  72 CALM      29.99R                  
$$

MSZ003>006-009-014>017-022>024-029>033-037>039-171700-
NORTHEAST MISSISSIPPI
  
CITY           SKY/WX    TMP DP  RH WIND       PRES   REMARKS
ABERDEEN       FAIR      82  82 100 VRB5G12   30.02R FOG     HX  97   
COLUMBUS AFB   FAIR      84  72  66 SE3       30.00R                  
CORINTH        FAIR      84  68  58 SW6       29.99S                  
GOLDN TRIANGLE FAIR      83  73  72 S7        30.01                   
STARKVILLE     FAIR      82  72  69 SE7       30.01S                  
TUPELO         FAIR      77  68  73 SW8       29.99S                  
$$

MSZ040-058-171700-
CENTRAL MISSISSIPPI
  
CITY           SKY/WX    TMP DP  RH WIND       PRES   REMARKS
JACKSON INTL   PTSUNNY   83  73  72 S8        29.98R                  
JACKSON HAWKNS PTSUNNY   84  75  74 S8        29.98R HX  92           
MADISON        FAIR      81  75  83 SW5       29.98R                  
MERIDIAN KEY   NOT AVBL                                               
MERIDIAN NAS   PTSUNNY   85  73  67 VRB7      30.01S HX  91           
RAYMOND        PTSUNNY   86  79  79 VRB5      29.97R HX  99           
VICKSBURG VKS  MOSUNNY   82  75  78 CALM      29.97R                  
$$

MSZ059>079-171700-
SOUTH MISSISSIPPI
  
CITY           SKY/WX    TMP DP  RH WIND       PRES   REMARKS
BROOKHAVEN     PTSUNNY   84  75  74 NE9       29.99R HX  92           
HATTIESBURG    PTSUNNY   86  72  62 S10       29.99S HX  92           
LAUREL         CLOUDY    84  73  69 S8        29.99R HX  91           
MCCOMB         FAIR      87  75  67 SE10      29.97R HX  96           
NATCHEZ        PTSUNNY   83  75  77 S9G18     29.97R HX  90           
PINE BELT      PTSUNNY   82  75  78 S8        30.00S                  
$$

MSZ080>082-171700-
COASTAL MISSISSIPPI
  
CITY           SKY/WX    TMP DP  RH WIND       PRES   REMARKS
BAY ST LOUIS   MOSUNNY   88  72  58 S13       29.98R HX  94           
BILOXI         FAIR      88  75  65 S14G20    29.98S HX  97           
PASCAGOULA     PTSUNNY   90  73  57 SE14      29.99S HX  98           
GULFPORT       FAIR      87  73  62 SE14      29.98R HX  94           
$$

LAZ007>009-015>016-023>026-171700-
NORTHEAST LOUISIANA
  
CITY           SKY/WX    TMP DP  RH WIND       PRES   REMARKS
BASTROP        FAIR      77  69  75 CALM      29.97S                  
TALLULAH/VBURG PTSUNNY   80  72  76 CALM      29.97S                  
VIDALIA        CLOUDY    82  75  78 S3        29.95R                  
$$